Location: Carrières
(48.9495°N, 2.0407°E)
Time: 08:01:02
(UTC+00:00)

deb Agena D - Pass Details

Date: 31 July 2024
Orbit: 906 x 952 km, 99.6° (Epoch: 15 May)

Event Time Altitude Azimuth Distance (km) Brightness Sun altitude
Exits shadow 23:47:33 18° 114° (ESE) 2,148 ? -23.1°
Maximum altitude 23:51:14 35° 61° (ENE) 1,509 ? -23.1°
Drops below altitude 10° 23:56:36 10° 358° (N) 2,700 ? -23.1°
Sets 23:59:15 0° 350° (N) 3,649 ? -23.1°
